Location: Newark
(42.9277°N, 71.8621°W)
Time: 18:44:17
(UTC+00:00)

Transit 4A - Pass Details

Date: 17 May 2021
Orbit: 872 x 973 km, 66.8° (Epoch: 15 June)

Event Time Altitude Azimuth Distance (km) Brightness Sun altitude
Rises 05:05:11 0° 336° (NNW) 3,499 11.8 -27.5°
Reaches altitude 10° 05:08:29 10° 354° (N) 2,544 11.1 -27.4°
Maximum altitude 05:12:34 19° 39° (NE) 1,962 10.2 -27.3°
Drops below altitude 10° 05:16:38 10° 83° (E) 2,521 10.3 -27.2°
Sets 05:19:52 0° 101° (E) 3,456 10.9 -27.1°
